Lid_Strength_Index
4 3 3 3 3 3 3 3 3 3 3 3 3 4 4 4 4 5 7 4 2 -1 -0 2 2 2 2 3 4 5 9 10 9 8 7 5 5 4 3 4 3 3 3 2 1
4 4 4 4 4 3 3 3 3 3 3 3 3 3 4 4 6 7 4 -1 -1 -2 4 5 3 2 4 4 4 6 8 8 6 5 6 5 5 5 5 5 5 4 2 2 1
4 4 4 3 3 3 4 4 3 3 3 3 3 3 2 3 6 7 -0 -2 -2 -0 4 4 3 3 5 5 5 5 8 6 5 5 4 5 5 4 5 6 4 5 3 2 2
4 3 3 3 3 3 3 3 3 3 3 3 3 3 2 4 10 3 -2 -1 0 4 5 6 7 7 6 6 5 7 5 5 5 4 5 5 4 5 5 5 3 3 3 2 3
4 4 4 4 3 3 3 3 3 3 3 3 3 4 5 8 8 3 -2 -1 2 4 6 7 8 7 8 6 5 7 6 5 4 4 4 4 5 5 5 3 3 3 3 3 3
4 4 3 3 3 3 3 3 3 3 3 3 3 3 6 11 5 4 4 3 3 4 3 4 6 6 7 6 6 5 6 5 5 5 4 5 5 5 4 3 3 3 3 3 3
4 4 4 4 3 3 3 3 3 3 3 3 3 4 7 9 5 4 4 5 4 4 5 3 2 5 6 7 5 5 7 6 5 5 5 4 7 6 4 3 4 4 3 3 3
3 3 3 4 3 3 3 3 3 3 3 3 3 4 9 5 4 5 4 5 5 4 5 4 3 4 5 5 6 7 7 9 6 5 5 5 9 6 4 4 4 4 4 3 3
3 3 4 4 4 3 3 3 3 3 3 2 4 6 9 3 6 4 4 7 6 5 5 4 5 6 5 7 8 7 10 10 8 5 6 6 8 5 4 4 5 4 4 4 3
4 4 4 4 4 3 4 4 3 3 3 3 4 7 6 7 6 5 4 5 7 6 7 6 7 9 9 9 12 10 10 9 9 7 6 7 7 6 4 5 5 4 4 4 4
4 4 4 4 4 4 5 4 7 7 5 7 6 7 7 5 5 7 6 6 6 7 10 8 9 11 10 9 8 8 8 9 8 6 7 8 7 6 5 5 5 5 4 4 4
3 3 3 3 3 4 5 6 7 6 10 7 7 7 7 6 9 8 6 9 9 10 8 9 10 8 8 8 9 9 9 9 7 6 7 7 8 6 5 5 5 5 5 4 4
4 4 4 4 3 3 4 4 2 3 9 8 6 8 7 6 9 8 7 8 10 11 9 10 10 7 8 9 9 9 9 9 9 7 7 7 9 8 6 5 5 4 4 4 4
4 4 3 3 3 1 2 -0 -1 -0 10 8 7 6 5 5 8 4 4 7 9 11 10 10 8 9 8 9 8 10 8 8 8 9 12 7 13 9 7 6 5 5 4 4 4
3 2 2 -0 1 2 1 -1 -1 1 18 7 6 2 3 5 5 5 3 5 9 9 9 13 10 9 10 9 7 9 7 8 8 9 9 9 12 10 7 8 6 5 5 4 4
2 1 -1 -0 0 -0 -1 -1 1 12 18 9 6 8 7 6 6 5 4 3 4 7 8 11 8 8 9 7 7 6 8 8 8 9 13 10 11 11 9 8 6 5 4 4 4
1 -0 0 -1 2 -1 -1 3 12 17 7 10 8 7 8 8 7 6 7 8 9 13 11 10 9 9 8 9 7 7 9 13 14 13 14 9 11 10 7 6 6 5 5 4 3
0 0 -1 -1 -1 -1 1 7 17 11 10 6 7 7 9 7 7 7 8 9 7 8 10 14 15 10 9 10 9 8 9 12 16 15 13 9 12 10 6 5 5 4 4 4 4
1 -0 0 -1 -1 -1 5 13 13 9 7 8 8 10 10 8 9 8 9 9 8 8 12 13 12 7 7 7 7 9 11 8 11 10 12 11 9 7 6 6 5 5 4 5 4
1 2 1 -1 -2 2 8 11 8 6 6 7 10 10 13 10 11 10 10 8 8 7 6 9 14 9 7 6 7 8 7 11 10 15 16 12 11 10 8 7 6 5 5 5 5
1 4 1 -2 -0 5 11 9 7 5 5 7 9 11 9 10 10 10 10 8 7 7 6 7 10 11 8 9 10 9 10 9 9 10 14 15 12 7 7 6 6 6 5 5 5
2 7 0 -1 7 7 9 7 6 6 5 6 6 8 9 9 10 10 10 10 7 6 10 8 10 14 12 8 6 7 9 9 12 13 11 11 11 6 6 5 5 5 5 5 5
5 4 0 1 10 9 7 6 6 7 7 7 8 7 7 9 13 9 10 7 7 8 10 9 12 16 14 10 8 9 8 8 8 9 12 13 12 6 5 5 5 6 5 5 5
4 7 4 3 4 7 8 8 8 6 7 6 7 6 8 10 8 10 11 8 6 7 6 8 12 13 16 15 12 12 9 8 9 12 11 11 10 7 6 6 6 6 5 5 5
4 5 4 8 7 7 7 8 9 9 6 6 8 7 8 10 9 9 8 8 7 7 7 10 15 12 11 12 12 13 11 9 9 9 11 10 9 8 7 6 6 6 5 5 5
5 6 4 7 6 7 7 8 9 8 8 8 9 8 7 9 9 10 8 8 9 8 9 9 14 12 13 11 12 14 11 9 8 8 8 9 9 6 6 5 6 6 5 5 5
2 2 5 7 7 8 9 8 8 7 7 6 7 8 8 7 6 5 5 6 6 8 9 9 11 14 15 11 13 15 11 9 8 7 8 10 8 6 6 6 6 5 5 5 5